Starlink 3342

operational
NORAD ID: 50816 Int'l Des: 2022-001 Owner: SPXS Country: US Constellation: starlink
LEOCIRCULAR

关于 Starlink 3342

正在加载描述...

实时位置

正在加载3D地球...

即将过境

高度历史

Altitude vs Time

uPlot chart will show altitude changes over time

两行轨道根数

1 50816U 22001P 25302.53264602 .00003519 00000-0 23891-3 0 9999
2 50816 53.2171 37.9049 0001257 99.2043 260.9091 15.08861267210605
Epoch: Oct 29, 2025 • Age: 12 hours

当前状态

高度 544.9 km
速度 7.60 km/s
星下点 51.21°N, 103.93°E
发射日期 Jan 6, 2022
运行时间 3.8 years
类型 internet

技术详情

分类 Payload
质量 297.00 kg
干质量 275.00 kg
总质量 297.00 kg
长度 0.20 m
直径 2.80 m
跨度 9.00 m
形状 Box + pan
制造商 SPXS
平台类型 Starlink
阶段状态 In Orbit
所有者/国家 SPXS/US

大型星座

Loading constellations...